www.pogodaiklimat.ru

Погода и климат >> Архив погоды >> Россия >> Ненецкий АО >> Несь


ПОГОДА в Неси

  • Прогноз погоды в Неси
  • Монитор погоды в Неси
  • Климат города

АРХИВ ПОГОДЫ в Неси

Время (UTC), дата Ветер
(напр.,м/с)
 
Видим.   Явления Облачность Т
(С)
Тd
(С)
f
(%)
Тe
(С)
Тes
(С)
Комфортность P
(гПа)
Po
(гПа)
Тmin
(С)
Tmax
(С)
R
(мм)
R24
(мм)
S
(см)
21 18.05 Ю 4 н/о н/о +11.0 -29.8 4 +10 +10 1005.3 1003.9
00 19.05 З 4 н/о н/о +2.3 -35.9 4 -1 -1 1005.4 1003.9
03 19.05 СЗ 3 н/о н/о +3.0 -35.2 4 +1 1006.9 1005.3 +2.1
06 19.05 С 4 н/о н/о +2.7 -35.7 4 -1 -1 1006.3 1004.8 +1.9
09 19.05 С 8-11
{12}
н/о н/о +2.0 -36.1 4 -3 -3 1007.8 1006.3
12 19.05 С 8-12
{13}
н/о н/о +2.2 -36.0 4 -3 -3 1009.6 1008.1
15 19.05 С 7-10
{12}
н/о н/о +2.0 -36.1 4 -3 -3 1011.9 1010.4
18 19.05 С 5
{11}
н/о н/о +1.3 -36.6 4 -3 -3 1013.3 1011.8 +2.7
21 19.05 С 4 н/о н/о +0.5 -37.2 4 -3 -3 1014.2 1012.7
00 20.05 штиль 0 н/о н/о +0.4 -37.3 4 +1 +1 1014.7 1013.2
03 20.05 ЮЗ 3 н/о н/о +1.6 -36.4 4 -1 -1 1014.5 1013.0 +0.2
06 20.05 ЮЗ 4 н/о н/о +5.1 -33.7 4 +2 1014.9 1013.3 +0.2
09 20.05 З 6
{11}
н/о н/о +6.9 -32.7 4 +4 +4 1014.1 1012.6
12 20.05 СЗ 6
{10}
н/о н/о +4.6 -34.3 4 +1 +1 1015.6 1014.1
15 20.05 СЗ 4 н/о н/о +6.2 -33.1 4 +4 +4 1018.0 1016.5
18 20.05 З 2 н/о н/о +3.3 -35.2 4 +2 +2 1019.2 1017.7 +9.5
21 20.05 З 2 н/о н/о +0.5 -37.2 4 -1 -1 1020.4 1018.8
00 21.05 ЮЗ 2 н/о н/о -0.8 -38.2 4 -3 -3 1020.2 1018.7
03 21.05 ЮЗ 5 н/о н/о +4.7 -34.2 4 +1 +1 1019.1 1017.6 -0.9
06 21.05 ЮЗ 8-14
{14}
н/о н/о +8.8 -31.3 4 +6 +6 1016.7 1015.2 -0.9
09 21.05 ЮЗ 6-11
{14}
н/о н/о +13.2 -28.2 4 +12 +12 1014.8 1013.3
12 21.05 З 8-13
{16}
н/о н/о +12.7 -28.6 4 +10 +10 1013.2 1011.8
15 21.05 З 3
{15}
н/о н/о +8.1 -31.8 4 +7 +7 1014.8 1013.3
18 21.05 СВ 6
{10}
н/о н/о +6.3 -33.1 4 +3 +3 1016.4 1015.0 +14.3
21 21.05 СЗ 3 н/о н/о +4.7 -34.2 4 +3 +3 1020.5 1019.0
00 22.05 СЗ 4 н/о н/о +3.0 -35.4 4 -0 -0 1022.5 1021.0
03 22.05 З 3 н/о н/о +4.8 -34.1 4 +3 +3 1024.9 1023.4 +2.8
06 22.05 З 5 н/о н/о +7.7 -32.1 4 +5 +5 1026.6 1025.1 +2.8
09 22.05 З 3 н/о н/о +9.9 -30.5 4 +9 +9 1027.8 1026.3
12 22.05 СЗ 1 н/о н/о +11.5 -29.4 4 +12 +12 1026.7 1025.2
15 22.05 В 4 н/о н/о +11.6 -29.3 4 +10 +10 1024.3 1022.8
18 22.05 ЮВ 4 н/о н/о +10.7 -30.0 4 +9 +9 1020.4 1018.9 +11.9
21 22.05 Ю 6 н/о н/о +11.4 -29.5 4 +9 +9 1016.9 1015.5
00 23.05 Ю 5 н/о н/о +10.8 -29.9 4 +9 +9 1012.4 1010.9
03 23.05 З 3 н/о н/о +12.8 -28.5 4 +12 +12 1010.1 1008.6 +9.9
06 23.05 СЗ 5 н/о н/о +9.2 -31.0 4 +7 +7 1009.2 1007.8 +9.6
09 23.05 С 6
{14}
н/о н/о +4.7 -34.2 4 +1 +1 1012.3 1010.8
12 23.05 С 8-12
{12}
н/о н/о +6.0 -33.3 4 +2 +2 1015.7 1014.2
15 23.05 СЗ 7-12
{13}
н/о н/о +6.0 -33.3 4 +2 +2 1017.5 1016.0
18 23.05 СЗ 7-10
{12}
н/о н/о +3.9 -34.8 4 -0 -0 1018.9 1017.4 +9.6
21 23.05 СЗ 6-10
{13}
н/о н/о +3.0 -35.4 4 -1 -1 1020.4 1018.9
00 24.05 СЗ 6-10
{12}
н/о н/о +2.5 -35.8 4 -2 -2 1021.8 1020.3
03 24.05 СЗ 7
{11}
н/о н/о +3.2 -35.3 4 -1 -1 1022.4 1020.9 +2.2
06 24.05 СЗ 8-13
{14}
н/о н/о +3.5 -35.1 4 -1 -1 1023.5 1022.0 +2.2
09 24.05 СЗ 7-11
{13}
н/о н/о +5.7 -33.5 4 +2 +2 1024.4 1022.9
12 24.05 СЗ 8-12
{15}
н/о н/о +5.3 -33.8 4 +1 +1 1025.3 1023.8
15 24.05 С 7-11
{13}
н/о н/о +3.6 -35.0 4 -1 -1 1026.3 1024.7
18 24.05 С 2
{12}
н/о н/о -0.1 -37.6 4 -2 -2 1026.3 1024.8 +5.9
21 24.05 С 2 н/о н/о -1.3 -38.5 4 -4 -4 1026.8 1025.2
03 25.05 ЮЗ 3 н/о н/о +1.9 -36.2 4 -1 -1 1026.1 1024.6 -2.9
09 25.05 З 6 н/о н/о +10.0 -30.4 4 +8 +8 1025.1 1023.6
12 25.05 СЗ 4 н/о н/о +10.1 -30.2 4 +9 1026.9 1025.3
15 25.05 СЗ 2 н/о н/о +10.8 -29.7 4 +10 1026.9 1025.3

 

Местоположение метеостанции Несь (Ненецкий АО, Россия): широта 66.60 долгота 44.68 высота над уровнем моря 13 м.

В архиве по умолчанию представлена погода в Неси за последнюю неделю. Архивные данные за месяц целиком и за предыдущие месяцы, начиная с января 2011 года, Вы можете получить, выбрав интересующий диапазон дат из раскрывающегося списка и нажав кнопку "Ввод!".


*Определитесь, кто Вы:
робот инопланетянин человек

Внимание! Время в таблицах - всемирное. Для получения местного времени необходимо прибавить поправку, которая в Неси равна 3 ч.

Смотрите также архив погоды в соседних городах и на ближайших метеорологических станциях:

Погода в Абрамовском маяке (Архангельская область, Россия) (68 км)
Погода в Мезене (Архангельская область, Россия) (84 км)
Погода на Моржовец Острове (Архангельская область, Россия) (98 км)
Погода в Мосеево (Архангельская область, Россия) (115 км)
Погода в Нижней Пеше (Ненецкий АО, Россия) (137 км)
Погода в Шойне (Ненецкий АО, Россия) (144 км)
Погода на Мысе Микулкин (Ненецкий АО, Россия) (158 км)
Погода на Сосновец Острове (Мурманская область, Россия) (178 км)
Погода в Кепино (Архангельская область, Россия) (187 км)
Погода в Лешуконском (Архангельская область, Россия) (196 км)

Пояснения к столбцам:

Ветер - указаны скорость ветра в м/с - средняя за 10 мин, порывы в срок и между сроками (в фигурных скобках) и направление, откуда дует ветер: С - северный, СВ - северо-восточный, В - восточный, ЮВ - юго-восточный, Ю - южный, ЮЗ - юго-западный, З - западный, СЗ - северо-западный.
Видимость - горизонтальная дальность видимости в метрах или километрах. При видимости от 1 до 10 км при отсутствии осадков обычно наблюдается дымка, при ухудшении видимости до 1 км и менее - туман. В сухую погоду видимость может ухудшаться дымом, пылью или мглою.
Явления - указаны атмосферные явления, наблюдавшиеся в срок или в последний час перед сроком; фигурными скобками обозначены явления, наблюдавшиеся между сроками (за 1-3 часа до срока); квадратными скобками обозначены град или гололедные отложения с указанием их диаметра в мм.
Облачность - указаны через наклонную черту общая и нижняя облачность в баллах и высота нижней границы облаков в метрах; квадратными скобками обозначены формы облаков: Ci - перистые, Cs - перисто-слоистые, Cc - перисто-кучевые, Ac - высококучевые, As - высокослоистые, Sc - слоисто-кучевые, Ns - слоисто-дождевые, Cu - кучевые, Cb - кучево-дождевые. Подробнее классификацию облаков см. в Атласе облаков (PDF).
T - Температура воздуха - температура, измеренная на высоте 2 м над землей.
Td - Температура точки росы - температура, при понижении до которой содержащийся в воздухе водяной пар достигнет насыщения.
f - Относительная влажность воздуха - влажноcть воздуха, измеренная на высоте 2 м над землей.
Te - Эффективная температура - температура, которую ощущает одетый по сезону человек в тени. Характеристика душности погоды. При расчете учитывается влияние влажности воздуха и скорости ветра на теплоощущения человека.
Tes - Эффективная температура на солнце - температура, которую ощущает человек, с поправкой на солнечный нагрев. Характеристика знойности погоды. Зависит от высоты солнца над горизонтом, облачности и скорости ветра. Ночью, в пасмурную погоду, а также при ветре 12 м/с и более поправка равна нулю.
P - Атмосферное давление - приведенное к уровню моря атмосферное давление.
Po - Атмосферное давление - измеренное на уровне метеостанции атмосферное давление.
Tmin - Минимальная температура - минимум температуры воздуха на высоте 2 м над землей.
Tmax - Максимальная температура - максимум температуры воздуха на высоте 2 м над землей.
R - Количество осадков - Количество выпавших осадков за период времени, мм. При наведении курсора мыши на число - период времени, за который выпало указанное количество осадков.
R24 - Количество осадков - Количество выпавших осадков за 24 часа, мм.
S - Снежный покров - Высота снежного покрова, см. При наведении курсора мыши на число - состояние снежного покрова и степень покрытия местности в баллах.